This is the latest recevied weather packets stored in our database for station/object KE8URB. If no packets are shown the sender has not sent any weather packets the latest 1 day(s).
| Time | Temp. | Humidity | Pressure | Rain* | Wind** | Luminosity | Snow |
|---|---|---|---|---|---|---|---|
| 1778064615 | 7.22° C | 99% | 1007.9 hPa | 0 mm | - | 0 W/m² | - |
| 1778064313 | 7.22° C | 99% | 1007.7 hPa | 0 mm | - | 0 W/m² | - |
| 1778063404 | 7.22° C | 99% | 1007 hPa | 0 mm | - | 0 W/m² | - |
| 1778062193 | 6.67° C | 99% | 1007.6 hPa | 0 mm | - | 0 W/m² | - |
| 1778060983 | 6.67° C | 99% | 1007.1 hPa | 1.78 mm | - | 0 W/m² | - |
| 1778060682 | 6.67° C | 99% | 1007.6 hPa | 0 mm | - | 0 W/m² | - |
| 1778060379 | 6.67° C | 99% | 1007.9 hPa | 1.78 mm | - | 0 W/m² | - |
| 1778060077 | 6.67° C | 99% | 1007.9 hPa | 3.05 mm | - | 0 W/m² | - |
| 1778059774 | 7.22° C | 99% | 1008 hPa | 1.27 mm | - | 0 W/m² | - |
| 1778058867 | 7.22° C | 99% | 1007.7 hPa | 3.05 mm | - | 0 W/m² | - |
| 1778057958 | 7.78° C | 99% | 1007.7 hPa | 0 mm | - | 0 W/m² | - |
| 1778057048 | 8.33° C | 99% | 1007.3 hPa | 0 mm | - | 0 W/m² | - |
| 1778056744 | 8.89° C | 99% | 1007.4 hPa | 0 mm | - | 0 W/m² | - |
| 1778055835 | 8.89° C | 99% | 1006.7 hPa | 1.78 mm | - | 0 W/m² | - |
| 1778055531 | 8.89° C | 99% | 1006.7 hPa | 3.05 mm | - | 0 W/m² | - |
| 1778054927 | 9.44° C | 99% | 1007 hPa | 3.05 mm | - | 0 W/m² | - |
| 1778053110 | 9.44° C | 99% | 1006.7 hPa | 4.83 mm | - | 0 W/m² | - |
| 1778052504 | 9.44° C | 99% | 1006.6 hPa | 3.05 mm | - | 0 W/m² | - |
| 1778052202 | 9.44° C | 99% | 1006.3 hPa | 3.05 mm | - | 0 W/m² | - |
| 1778051597 | 9.44° C | 99% | 1006.2 hPa | 1.78 mm | - | 0 W/m² | - |
| 1778051294 | 9.44° C | 99% | 1006.1 hPa | 3.56 mm | - | 0 W/m² | - |
| 1778050991 | 9.44° C | 99% | 1006.2 hPa | 3.05 mm | - | 0 W/m² | - |
| 1778050386 | 10° C | 99% | 1006.7 hPa | 3.05 mm | - | 0 W/m² | - |
| 1778050082 | 10° C | 99% | 1006.9 hPa | 1.27 mm | - | 0 W/m² | - |
| 1778049475 | 10° C | 99% | 1006.5 hPa | 1.78 mm | - | 0 W/m² | - |
* Rain latest hour (hover to see other rain measurements)
** Current wind speed in m/s (hover to see current wind gust speed)